Location: Akgöl Batakl???
(38.9482°N, 31.8837°E)
Time: 21:55:10
(UTC+00:00)

Meteor 1-18 Rocket - Pass Details

Date: 08 May 2026
Orbit: 837 x 906 km, 81.2° (Epoch: 10 June)

Event Time Altitude Azimuth Distance (km) Brightness Sun altitude
Exits shadow 23:18:40 71° 39° (NE) 889 4.3 -30.0°
Drops below altitude 10° 23:23:42 10° 12° (NNE) 2,475 7.5 -29.5°
Sets 23:26:09 0° 11° (N) 3,422 8.5 -29.3°
